Location: Bailey Volunteer Fire Department
(33.4359°N, 96.1680°W)
Time: 17:26:52
(UTC+00:00)

Cosmos 1125 Rocket - Pass Details

Date: 13 December 2025
Orbit: 754 x 775 km, 74.0° (Epoch: 13 January)

Event Time Altitude Azimuth Distance (km) Brightness Sun altitude
Rises 12:32:44 0° 347° (NNW) 3,239 6.4 -9.8°
Reaches altitude 10° 12:35:09 10° 351° (N) 2,306 5.7 -9.4°
Maximum altitude 12:40:20 62° 72° (ENE) 856 4.0 -8.4°
Drops below altitude 10° 12:45:27 10° 152° (SSE) 2,279 6.8 -7.4°
Sets 12:47:49 0° 156° (SSE) 3,198 7.5 -6.9°
